| time (UTC) | temp F | wind direction | speed knots | gust knots | rain 1hr in | rain 24hr in | rain mn in | humidity % | barometer mb |
| 20260505101603 | 59 | 0 | 0.0 | 6.1 | 0.03 | 0.03 | 0.03 | 84 | 1011.0 |
| 20260505100059 | 60 | 282 | 2.6 | 9.6 | 0.01 | 0.01 | 0.01 | 79 | 1011.1 |
| 20260505094607 | 63 | 288 | 2.6 | 16.5 | 0.00 | 0.00 | 0.00 | 68 | 1011.2 |
| 20260505093112 | 64 | 0 | 0.9 | 8.7 | 0.00 | 0.00 | 0.00 | 63 | 1010.4 |
| 20260505091603 | 64 | 226 | 0.9 | 9.6 | 0.00 | 0.00 | 0.00 | 63 | 1010.1 |
| 20260505084559 | 64 | 203 | 4.3 | 7.8 | 0.00 | 0.00 | 0.00 | 61 | 1009.3 |
| 20260505083100 | 64 | 195 | 3.5 | 9.6 | 0.00 | 0.00 | 0.00 | 61 | 1009.1 |
| 20260505081603 | 64 | 197 | 5.2 | 12.2 | 0.00 | 0.00 | 0.00 | 60 | 1008.8 |
| 20260505080058 | 65 | 203 | 6.1 | 13.9 | 0.00 | 0.00 | 0.00 | 60 | 1008.5 |
| 20260505074610 | 65 | 219 | 6.1 | 13.0 | 0.00 | 0.00 | 0.00 | 59 | 1008.6 |
| 20260505073107 | 65 | 201 | 6.1 | 12.2 | 0.00 | 0.00 | 0.00 | 59 | 1008.5 |
| 20260505071558 | 65 | 211 | 6.1 | 13.9 | 0.00 | 0.00 | 0.00 | 59 | 1008.3 |
| 20260505070100 | 65 | 186 | 6.1 | 13.9 | 0.00 | 0.00 | 0.00 | 58 | 1008.5 |
| 20260505064559 | 66 | 182 | 5.2 | 12.2 | 0.00 | 0.00 | 0.00 | 58 | 1008.6 |
| 20260505063100 | 66 | 194 | 5.2 | 13.9 | 0.00 | 0.00 | 0.00 | 57 | 1008.5 |
| 20260505061625 | 66 | 188 | 6.1 | 12.2 | 0.00 | 0.00 | 0.00 | 58 | 1008.4 |
| 20260505054625 | 66 | 196 | 7.0 | 13.0 | 0.00 | 0.00 | 0.00 | 57 | 1007.9 |
| 20260505053059 | 66 | 186 | 5.2 | 12.2 | 0.00 | 0.00 | 0.00 | 58 | 1007.9 |
| 20260505051559 | 66 | 202 | 6.1 | 13.0 | 0.00 | 0.00 | 0.00 | 57 | 1008.0 |
| 20260505041602 | 67 | 214 | 4.3 | 11.3 | 0.00 | 0.00 | 0.00 | 57 | 1008.7 |
| 20260505034600 | 67 | 209 | 5.2 | 9.6 | 0.00 | 0.00 | 0.00 | 58 | 1008.7 |
| 20260505033100 | 67 | 199 | 3.5 | 9.6 | 0.00 | 0.00 | 0.00 | 59 | 1008.8 |
| 20260505031615 | 67 | 189 | 2.6 | 7.8 | 0.00 | 0.00 | 0.00 | 59 | 1008.5 |
| 20260505024611 | 67 | 183 | 6.1 | 9.6 | 0.00 | 0.00 | 0.00 | 58 | 1008.1 |
| 20260505023101 | 67 | 163 | 5.2 | 9.6 | 0.00 | 0.00 | 0.00 | 58 | 1008.0 |
| 20260505021613 | 68 | 176 | 5.2 | 10.4 | 0.00 | 0.00 | 0.00 | 59 | 1008.0 |
| 20260505020100 | 68 | 176 | 5.2 | 10.4 | 0.00 | 0.00 | 0.00 | 58 | 1007.6 |
| 20260505014559 | 68 | 188 | 6.1 | 9.6 | 0.00 | 0.00 | 0.00 | 57 | 1007.2 |
| 20260505013057 | 68 | 184 | 4.3 | 7.8 | 0.00 | 0.00 | 0.00 | 58 | 1007.2 |
| 20260505011558 | 69 | 183 | 3.5 | 7.0 | 0.00 | 0.00 | 0.00 | 57 | 1007.1 |
| 20260505010057 | 69 | 192 | 2.6 | 7.0 | 0.00 | 0.00 | 0.00 | 56 | 1007.1 |
| 20260505004605 | 70 | 178 | 3.5 | 8.7 | 0.00 | 0.00 | 0.00 | 55 | 1007.0 |
| 20260505003100 | 71 | 186 | 5.2 | 11.3 | 0.00 | 0.00 | 0.00 | 55 | 1007.0 |
| 20260505001600 | 72 | 182 | 5.2 | 9.6 | 0.00 | 0.00 | 0.00 | 52 | 1007.2 |
| 20260505000058 | 72 | 210 | 7.0 | 12.2 | 0.00 | 0.00 | 0.00 | 51 | 1007.4 |
| 20260504234558 | 73 | 228 | 6.1 | 13.0 | 0.00 | 0.00 | 0.00 | 52 | 1007.5 |
| 20260504233102 | 73 | 179 | 5.2 | 11.3 | 0.00 | 0.00 | 0.00 | 48 | 1007.7 |
| 20260504231557 | 74 | 182 | 4.3 | 11.3 | 0.00 | 0.00 | 0.00 | 46 | 1007.9 |
| 20260504230101 | 74 | 219 | 3.5 | 12.2 | 0.00 | 0.00 | 0.00 | 48 | 1008.1 |
| 20260504224559 | 75 | 193 | 7.8 | 20.0 | 0.00 | 0.00 | 0.00 | 47 | 1008.2 |
| 20260504223103 | 75 | 181 | 8.7 | 14.8 | 0.00 | 0.00 | 0.00 | 46 | 1008.1 |
| 20260504221608 | 75 | 199 | 4.3 | 11.3 | 0.00 | 0.00 | 0.00 | 44 | 1008.2 |
| 20260504220135 | 76 | 205 | 6.1 | 17.4 | 0.00 | 0.00 | 0.00 | 42 | 1008.2 |
| 20260504214558 | 76 | 201 | 5.2 | 20.0 | 0.00 | 0.00 | 0.00 | 46 | 1008.2 |
| 20260504213123 | 78 | 193 | 5.2 | 13.9 | 0.00 | 0.00 | 0.00 | 46 | 1008.1 |
| 20260504211559 | 77 | 251 | 4.3 | 10.4 | 0.00 | 0.00 | 0.00 | 46 | 1008.6 |
| 20260504204619 | 74 | 193 | 5.2 | 9.6 | 0.00 | 0.00 | 0.00 | 52 | 1008.6 |
| 20260504203100 | 75 | 194 | 5.2 | 10.4 | 0.00 | 0.00 | 0.00 | 48 | 1008.8 |
| 20260504201612 | 74 | 0 | 2.6 | 9.6 | 0.00 | 0.00 | 0.00 | 51 | 1009.1 |
| 20260504200109 | 73 | 204 | 2.6 | 12.2 | 0.00 | 0.00 | 0.00 | 50 | 1009.5 |
| 20260504194559 | 73 | 217 | 5.2 | 13.9 | 0.00 | 0.00 | 0.00 | 49 | 1009.8 |
| 20260504193103 | 73 | 198 | 3.5 | 10.4 | 0.00 | 0.00 | 0.00 | 52 | 1009.9 |
| 20260504191559 | 73 | 252 | 1.7 | 13.0 | 0.00 | 0.00 | 0.00 | 53 | 1010.1 |
| 20260504190100 | 73 | 213 | 0.9 | 7.0 | 0.00 | 0.00 | 0.00 | 57 | 1010.2 |
| 20260504184601 | 72 | 195 | 2.6 | 10.4 | 0.00 | 0.00 | 0.00 | 63 | 1010.4 |
| 20260504183104 | 70 | 271 | 5.2 | 11.3 | 0.00 | 0.00 | 0.00 | 58 | 1010.5 |
| 20260504181614 | 70 | 163 | 6.1 | 17.4 | 0.00 | 0.00 | 0.00 | 60 | 1010.3 |
| 20260504174600 | 69 | 187 | 7.8 | 14.8 | 0.00 | 0.00 | 0.00 | 60 | 1010.2 |
| 20260504173101 | 67 | 194 | 9.6 | 16.5 | 0.00 | 0.00 | 0.00 | 61 | 1010.2 |
| 20260504171606 | 66 | 196 | 7.0 | 13.9 | 0.00 | 0.00 | 0.00 | 62 | 1010.3 |
| 20260504170104 | 66 | 205 | 5.2 | 13.0 | 0.00 | 0.00 | 0.00 | 63 | 1010.4 |
| 20260504160106 | 67 | 168 | 7.0 | 17.4 | 0.00 | 0.00 | 0.00 | 62 | 1011.1 |
| 20260504150104 | 63 | 199 | 3.5 | 10.4 | 0.00 | 0.00 | 0.00 | 65 | 1010.8 |
| 20260504110104 | 53 | 195 | 6.1 | 12.2 | 0.00 | 0.00 | 0.00 | 69 | 1011.3 |